Location: Trenton
(45.6167°N, 62.6167°W)
Time: 06:38:50
(UTC+00:00)

Nauka - Pass Details

Date: 06 October 2021
Orbit: 417 x 423 km, 51.6° (Epoch: 26 October)

Event Time Altitude Azimuth Distance (km) Brightness Sun altitude
Rises 22:13:14 0° 295° (WNW) 2,365 ? -6.5°
Reaches altitude 10° 22:15:24 10° 288° (WNW) 1,499 ? -6.9°
Maximum altitude 22:18:34 40° 217° (SW) 632 ? -7.4°
Drops below altitude 10° 22:21:44 10° 146° (SSE) 1,493 ? -8.0°
Enters shadow 22:23:30 - 140° (SE) 2,191 ? -8.3°
